Stations météo

réclame
Mon MeteoGroup
Cabauw Tower, Pays-Bas (6348): Température de l'air & dewpoint: 13.07.2018 15:00:00 - 19.07.2018 15:00:00 (CEST)Cabauw Tower, Pays-Bas (6348): Température de l'air 5cm: 13.07.2018 15:00:00 - 19.07.2018 15:00:00 (CEST)Cabauw Tower, Pays-Bas (6348): Vitesse du vent & gusts: 13.07.2018 15:00:00 - 19.07.2018 15:00:00 (CEST)Cabauw Tower, Pays-Bas (6348): Direction du vent: 13.07.2018 15:00:00 - 19.07.2018 15:00:00 (CEST)Cabauw Tower, Pays-Bas (6348): reduced air pressure: 13.07.2018 15:00:00 - 19.07.2018 15:00:00 (CEST)Cabauw Tower, Pays-Bas (6348): visibility: 13.07.2018 15:00:00 - 19.07.2018 15:00:00 (CEST)Cabauw Tower, Pays-Bas (6348): Quantités de précipitations: 13.07.2018 15:00:00 - 19.07.2018 15:00:00 (CEST)
Date & Time tt [°C] td [°C] tt 5cm [°C] ff [km/h] ff [knt] fx [km/h] fx [knt] dd ppp [hPa] vv [km] rr [mm]
19.07.2018 15:00:00 25,3 11,6 26,2 11 6 22 12 NNW 1018,3 31 0,0
19.07.2018 14:00:00 25,2 11,7 27,0 11 6 18 10 NW 1018,5 33 0,0
19.07.2018 13:00:00 24,4 11,8 27,1 7 4 22 12 NNW 1018,7 38 0,0
19.07.2018 12:00:00 24,2 13,2 26,4 11 6 22 12 NW 1018,8 36 0,0
19.07.2018 11:00:00 22,8 14,4 23,2 11 6 22 12 NNW 1019,0 28 0,0
19.07.2018 10:00:00 21,8 15,3 23,1 14 8 22 12 N 1019,1 25 0,0
19.07.2018 09:00:00 19,9 15,8 19,7 7 4 14 8 NNW 1019,1 12 0,0
19.07.2018 08:00:00 17,7 16,4 17,2 11 6 14 8 NNW 1018,9 4,0 0,0
19.07.2018 07:00:00 15,1 14,8 13,3 4 2 7 4 NW 1019,0 2,8 0,0
19.07.2018 06:00:00 13,4 13,3 9,9 4 2 7 4 NNW 1018,8 0,2 0,0
19.07.2018 05:00:00 13,6 13,3 10,3 4 2 7 4 NW 1018,9 1,7 0,0
19.07.2018 04:00:00 14,5 13,1 11,3 7 4 11 6 NW 1018,9 8 0,0
19.07.2018 03:00:00 15,1 13,6 12,0 4 2 7 4 NW 1019,0 10 0,0
19.07.2018 02:00:00 15,7 13,9 14,8 4 2 11 6 N 1019,2 14 0,0
19.07.2018 01:00:00 17,8 13,8 16,1 7 4 11 6 NNE 1019,1 22 0,0
19.07.2018 00:00:00 17,4 14,2 16,0 7 4 14 8 N 1019,3 27 0,0
18.07.2018 23:00:00 17,9 13,4 16,6 7 4 14 8 N 1019,2 40 0,0
18.07.2018 22:00:00 18,3 12,4 16,4 11 6 18 10 NW 1019,0 48 0,0
18.07.2018 21:00:00 20,0 11,8 19,0 14 8 22 12 NW 1018,8 49 0,0
18.07.2018 20:00:00 21,6 12,0 21,6 18 10 25 14 NW 1018,6 44 0,0
18.07.2018 19:00:00 22,9 12,3 23,4 18 10 25 14 NW 1018,5 38 0,0
18.07.2018 18:00:00 24,2 12,8 26,4 18 10 29 16 NW 1018,4 28 0,0
18.07.2018 17:00:00 24,8 12,0 28,4 7 4 18 10 W 1018,5 43 0,0
18.07.2018 16:00:00 24,3 10,8 23,8 4 2 14 8 SE 1018,5 46 0,0
18.07.2018 15:00:00 24,7 10,6 29,0 7 4 25 14 WSW 1018,7 29 0,0
18.07.2018 14:00:00 23,1 10,4 26,7 7 4 25 14 SSW 1018,7 44 0,0
18.07.2018 13:00:00 23,2 11,3 26,3 11 6 25 14 W 1019,0 35 0,0
18.07.2018 12:00:00 22,5 12,4 24,3 14 8 25 14 SW 1019,1 34 0,0
18.07.2018 11:00:00 21,3 11,7 23,6 14 8 22 12 SW 1019,0 38 0,0
18.07.2018 10:00:00 20,6 12,2 22,1 14 8 22 12 SW 1019,1 37 0,0
18.07.2018 09:00:00 19,1 13,3 19,0 11 6 14 8 SW 1018,8 30 0,0
18.07.2018 08:00:00 16,9 13,8 16,2 11 6 11 6 SSW 1018,6 26 0,0
18.07.2018 07:00:00 15,0 13,6 13,8 7 4 11 6 SSW 1018,4 19 0,0
18.07.2018 06:00:00 13,1 12,7 9,5 7 4 11 6 SSW 1018,1 12 0,0
18.07.2018 05:00:00 12,7 12,4 9,0 7 4 11 6 S 1018,1 3,7 0,0
18.07.2018 04:00:00 13,3 12,9 9,0 7 4 7 4 S 1017,9 8 0,0
18.07.2018 03:00:00 13,2 13,1 9,3 4 2 7 4 SSE 1018,1 7 0,0
18.07.2018 02:00:00 13,3 12,8 9,2 4 2 7 4 S 1018,2 4,7 0,0
18.07.2018 01:00:00 13,5 13,2 9,7 4 2 7 4 S 1018,1 10 0,0
18.07.2018 00:00:00 13,9 12,8 10,3 0 0 4 2 N 1018,1 13 0,0
17.07.2018 23:00:00 14,9 13,2 11,5 0 0 7 4 N 1018,0 25 0,0
17.07.2018 22:00:00 17,3 12,2 14,6 4 2 14 8 WNW 1017,8 35 0,0
17.07.2018 21:00:00 19,2 12,2 18,5 14 8 29 16 W 1017,3 39 0,0
17.07.2018 20:00:00 20,4 11,7 20,8 22 12 36 19 W 1016,7 43 0,0
17.07.2018 19:00:00 20,8 11,9 22,0 25 14 40 21 WNW 1016,6 35 0,0
17.07.2018 18:00:00 21,6 12,3 23,5 25 14 40 21 W 1016,2 32 0,0
17.07.2018 17:00:00 22,8 12,6 25,2 22 12 40 21 W 1016,0 28 0,0
17.07.2018 16:00:00 23,4 13,7 25,3 22 12 36 19 W 1015,8 33 0,0
17.07.2018 15:00:00 24,3 14,0 26,8 25 14 36 19 WSW 1015,5 30 0,0
17.07.2018 14:00:00 24,6 14,6 26,3 25 14 40 21 WSW 1015,4 36 0,0
17.07.2018 13:00:00 23,7 14,7 24,3 22 12 29 16 WSW 1015,3 30 0,0
17.07.2018 12:00:00 23,1 15,3 25,4 22 12 29 16 SW 1014,9 26 0,0
17.07.2018 11:00:00 22,2 16,2 22,8 18 10 25 14 W 1014,5 21 0,0
17.07.2018 10:00:00 21,8 17,4 23,0 14 8 22 12 SW 1014,1 15 0,0
17.07.2018 09:00:00 20,5 15,8 21,1 14 8 18 10 SW 1013,7 23 0,0
17.07.2018 08:00:00 19,4 15,3 18,6 11 6 14 8 SW 1013,6 18 0,0
17.07.2018 07:00:00 17,4 15,8 15,3 7 4 11 6 SSW 1013,3 9 0,0
17.07.2018 06:00:00 16,6 15,3 14,7 7 4 7 4 SSE 1013,0 10 0,0
17.07.2018 05:00:00 17,0 16,0 14,9 0 0 7 4 N 1013,0 10 0,0
17.07.2018 04:00:00 17,3 15,8 15,7 4 2 11 6 WNW 1012,9 18 0,0
17.07.2018 03:00:00 18,8 15,7 17,6 4 2 18 10 S 1012,9 29 0,0
17.07.2018 02:00:00 20,8 13,5 18,1 11 6 18 10 E 1012,7 48 0,0
17.07.2018 01:00:00 19,4 15,0 17,6 14 8 22 12 SSE 1013,3 26 1,2
17.07.2018 00:00:00 18,6 16,5 17,8 14 8 36 19 WSW 1013,9 12 2,5
16.07.2018 23:00:00 19,7 16,4 18,9 14 8 36 19 WSW 1013,5 13 0,2
16.07.2018 22:00:00 23,5 12,9 19,3 7 4 11 6 NE 1012,5 45 0,0
16.07.2018 21:00:00 25,3 13,2 23,3 7 4 11 6 N 1012,1 49 0,0
16.07.2018 20:00:00 27,4 11,4 26,5 11 6 18 10 NNE 1011,9 44 0,0
16.07.2018 19:00:00 28,4 10,9 28,4 7 4 14 8 NE 1011,7 44 0,0
16.07.2018 18:00:00 28,8 12,0 29,9 11 6 22 12 NW 1011,9 34 0,0
16.07.2018 17:00:00 28,8 10,8 30,7 14 8 22 12 N 1012,2 40 0,0
16.07.2018 16:00:00 29,4 11,4 30,8 4 2 18 10 WSW 1012,5 38 0,0
16.07.2018 15:00:00 28,5 10,9 30,0 7 4 14 8 NE 1013,0 33 0,0
16.07.2018 14:00:00 28,4 10,5 31,7 7 4 14 8 S 1013,5 33 0,0
16.07.2018 13:00:00 27,6 10,7 30,5 7 4 18 10 ESE 1013,8 41 0,0
16.07.2018 12:00:00 26,8 12,1 29,3 11 6 14 8 E 1014,0 32 0,0
16.07.2018 11:00:00 25,7 12,9 28,5 7 4 14 8 E 1014,2 31 0,0
16.07.2018 10:00:00 23,7 12,9 26,1 4 2 14 8 SE 1014,4 30 0,0
16.07.2018 09:00:00 21,8 13,9 23,2 7 4 14 8 ESE 1014,4 30 0,0
16.07.2018 08:00:00 19,5 12,9 19,8 7 4 11 6 E 1014,5 36 0,0
16.07.2018 07:00:00 17,7 12,4 15,6 7 4 11 6 ESE 1014,5 36 0,0
16.07.2018 06:00:00 14,9 11,4 10,9 7 4 7 4 E 1014,4 37 0,0
16.07.2018 05:00:00 16,7 11,0 13,5 7 4 14 8 E 1014,5 46 0,0
16.07.2018 04:00:00 17,5 11,0 15,0 11 6 18 10 ESE 1014,5 48 0,0
16.07.2018 03:00:00 18,2 11,4 15,1 11 6 14 8 E 1014,8 49 0,0
16.07.2018 02:00:00 17,6 13,6 11,9 7 4 11 6 ENE 1015,0 49 0,0
16.07.2018 01:00:00 18,1 14,3 14,1 7 4 11 6 ENE 1015,1 43 0,0
16.07.2018 00:00:00 19,1 14,0 16,3 7 4 18 10 NE 1015,2 46 0,0
15.07.2018 23:00:00 20,4 13,8 17,4 11 6 14 8 NNE 1015,3 49 0,0
15.07.2018 22:00:00 20,6 14,7 16,9 7 4 14 8 NNE 1015,2 49 0,0
15.07.2018 21:00:00 21,8 14,0 20,3 11 6 18 10 N 1014,7 48 0,0
15.07.2018 20:00:00 24,9 12,6 24,2 14 8 22 12 N 1014,7 42 0,0
15.07.2018 19:00:00 26,7 12,7 27,2 18 10 25 14 N 1014,8 37 0,0
15.07.2018 18:00:00 27,2 12,0 27,8 7 4 11 6 NNE 1015,1 46 0,0
15.07.2018 17:00:00 27,5 11,5 30,0 7 4 18 10 N 1015,5 37 0,0
15.07.2018 16:00:00 27,5 11,8 30,5 7 4 22 12 SSW 1015,8 39 0,0
15.07.2018 15:00:00 27,1 11,1 29,6 11 6 18 10 SE 1016,4 41 0,0
15.07.2018 14:00:00 26,6 11,6 29,7 11 6 18 10 SE 1017,0 33 0,0
15.07.2018 13:00:00 25,2 11,5 28,4 11 6 18 10 ESE 1017,5 33 0,0
15.07.2018 12:00:00 25,0 12,7 27,3 7 4 18 10 E 1017,9 34 0,0
15.07.2018 11:00:00 22,8 12,9 26,3 4 2 14 8 ESE 1018,2 38 0,0
15.07.2018 10:00:00 21,8 13,6 24,1 7 4 11 6 ESE 1018,3 33 0,0
15.07.2018 09:00:00 19,6 13,5 21,6 7 4 14 8 ESE 1018,3 32 0,0
15.07.2018 08:00:00 18,0 12,8 18,5 7 4 14 8 E 1018,3 36 0,0
15.07.2018 07:00:00 15,7 12,0 13,7 7 4 11 6 E 1018,1 32 0,0
15.07.2018 06:00:00 13,9 11,6 10,1 4 2 11 6 E 1018,1 40 0,0
15.07.2018 05:00:00 14,1 11,6 11,5 7 4 11 6 ENE 1018,4 40 0,0
15.07.2018 04:00:00 14,8 11,8 12,6 7 4 14 8 ENE 1018,6 47 0,0
15.07.2018 03:00:00 16,0 12,2 13,7 11 6 14 8 E 1018,9 48 0,0
15.07.2018 02:00:00 16,1 12,4 14,2 7 4 14 8 NE 1019,1 49 0,0
15.07.2018 01:00:00 16,6 13,3 14,8 7 4 14 8 NE 1019,3 47 0,0
15.07.2018 00:00:00 17,0 13,8 15,4 11 6 14 8 NE 1019,2 49 0,0
14.07.2018 23:00:00 17,4 13,7 15,6 7 4 18 10 NNE 1019,3 43 0,0
14.07.2018 22:00:00 18,5 13,5 16,9 11 6 18 10 NNE 1019,1 45 0,0
14.07.2018 21:00:00 20,6 13,2 19,7 14 8 22 12 N 1019,0 46 0,0
14.07.2018 20:00:00 22,4 11,3 22,6 14 8 25 14 N 1019,0 43 0,0
14.07.2018 19:00:00 23,1 11,3 24,1 18 10 25 14 N 1019,2 39 0,0
14.07.2018 18:00:00 24,2 10,5 25,8 11 6 22 12 N 1019,4 45 0,0
14.07.2018 17:00:00 24,1 9,2 26,3 14 8 29 16 N 1019,5 39 0,0
14.07.2018 16:00:00 24,3 12,1 26,3 18 10 40 21 N 1019,8 36 0,0
14.07.2018 15:00:00 23,4 12,1 26,3 14 8 25 14 NNE 1020,4 30 0,0
14.07.2018 14:00:00 23,4 12,6 26,4 11 6 22 12 NNW 1020,8 42 0,0
14.07.2018 13:00:00 22,6 12,6 25,6 7 4 18 10 NE 1021,0 32 0,0
14.07.2018 12:00:00 21,3 11,7 24,5 11 6 18 10 ENE 1021,5 36 0,0
14.07.2018 11:00:00 20,1 12,9 23,3 11 6 14 8 NE 1021,6 34 0,0
14.07.2018 10:00:00 18,9 13,1 21,7 7 4 18 10 NE 1021,9 26 0,0
14.07.2018 09:00:00 17,8 12,8 19,8 11 6 18 10 NE 1022,0 23 0,0
14.07.2018 08:00:00 15,8 13,0 16,8 7 4 11 6 NNE 1021,6 22 0,0
14.07.2018 07:00:00 13,7 12,6 13,0 4 2 11 6 N 1021,5 11 0,0
14.07.2018 06:00:00 12,0 11,6 10,5 7 4 7 4 N 1021,4 8 0,0
14.07.2018 05:00:00 12,7 11,6 11,1 7 4 11 6 NNE 1021,6 14 0,0
14.07.2018 04:00:00 12,6 11,7 11,3 7 4 11 6 N 1021,5 14 0,0
14.07.2018 03:00:00 14,4 12,2 12,5 7 4 14 8 ENE 1021,4 24 0,0
14.07.2018 02:00:00 14,5 12,7 12,6 7 4 14 8 NNE 1021,7 25 0,0
14.07.2018 01:00:00 14,5 13,3 12,6 4 2 11 6 NNE 1021,6 18 0,0
14.07.2018 00:00:00 14,7 12,9 13,2 7 4 11 6 N 1021,5 28 0,0
13.07.2018 23:00:00 15,9 13,5 14,6 7 4 14 8 N 1021,2 38 0,0
13.07.2018 22:00:00 17,0 14,0 16,1 11 6 22 12 N 1020,9 37 0,0
13.07.2018 21:00:00 19,6 13,8 19,0 14 8 25 14 N 1020,6 35 0,0
13.07.2018 20:00:00 20,9 14,0 21,1 14 8 25 14 NNE 1020,5 32 0,0
13.07.2018 19:00:00 22,8 14,9 23,5 18 10 25 14 N 1020,4 31 0,0
13.07.2018 18:00:00 23,1 14,6 23,8 18 10 25 14 N 1020,6 25 0,0
13.07.2018 17:00:00 24,2 14,1 24,2 7 4 18 10 N 1020,7 27 0,0
13.07.2018 16:00:00 23,3 13,4 25,9 11 6 22 12 NNW 1021,1 29 0,0
13.07.2018 15:00:00 23,4 13,4 26,8 7 4 18 10 NW 1021,4 29 0,0

tt = Température de l'air
td = dewpoint
tt 5cm = Température de l'air 5cm
ff = Vitesse du vent
fx = gusts
dd = Direction du vent
ppp = reduced air pressure
vv = visibility
rr = Quantités de précipitations

stations d'obs. à proximité